Content
SEND FEEDBACK

Daily
Averages
Monthly
Summary
Canada

QUEBEC CITY, QUEBEC


Home > North America > Canada > Quebec
Elevation: 239 feet     Latitude: 46 48N     Longitude: 071 23W

WEATHER
 
SELECT A DAY
Number of Records: 192,604;   Date Range: 6/30/96 - 8/31/14
 
SHARE

PRINT THIS DATA

[ ← Previous Day ]
WEATHER ALMANAC - APRIL 16, 2014
[ Next Day → ]
[ °C ]   °F
Weather ElementAverageHighLow
Temperature21.5 °F28.4 °F (6:00 pm)15.8 °F (7:00 am)
Dewpoint10.9 °F19.4 °F (1:00 am)6.8 °F (7:00 am)
Humidity62.9 %90 % (2:00 am)44 % (2:00 pm)
Barometer30.25 in30.60 in (11:00 pm)29.79 in (1:00 am)
Wind Speed14.3 mph23 mph (2:00 am)
Wind Gust31.1 mph (2:00 am)
Weather ElementAverage
Visibility22.9 mi
Wind DirectionWSW (252.8 °)

Weather ElementTotal
Precipitation---
Heating Degree Days42.9 (Base 65)
Averaged from 30 records on April 16, 2014
WEATHER CONDITIONS BREAKOUT
WIND DIRECTION BREAKOUT
WEATHER BY HOUR - APRIL 16, 2014
[ °C ]   °F
Local TimeTemperatureDewpointHumidityBarometerVisibilityWind DirectionWind SpeedGust SpeedPrecipitationEventsConditions
1:00 AM23.0 °F19.4 °F86 %29.79 in1.5 miWSW (250°)19.6 mph25.3 mphSnowLight Snow
2:00 AM21.0 °F19.0 °F90 %29.83 inWSW (250°)17.3 mph
2:00 AM21.2 °F17.6 °F86 %29.82 in4.0 miWSW (250°)23.0 mph31.1 mphSnowLight Snow
3:00 AM21.2 °F15.8 °F80 %29.87 in8.0 miWest (260°)21.9 mphSnowLight Snow Showers
4:00 AM19.4 °F14.0 °F80 %29.92 in8.0 miWSW (250°)19.6 mphSnowLow Drifting Snow
5:00 AM19.0 °F13.0 °F68 %29.95 inWest (270°)15.0 mph
5:00 AM17.6 °F10.4 °F73 %29.95 in10.0 miWest (270°)18.4 mph25.3 mphSnowLow Drifting Snow
6:00 AM17.6 °F8.6 °F68 %30.01 in30.0 miWest (260°)18.4 mphMostly Cloudy
7:00 AM15.8 °F6.8 °F68 %30.08 in30.0 miWest (270°)11.5 mph18.4 mphMostly Cloudy
8:00 AM17.0 °F9.0 °F59 %30.12 inWest (260°)10.4 mph
8:00 AM17.6 °F6.8 °F63 %30.12 in30.0 miWSW (250°)17.3 mphPartly Cloudy
9:00 AM17.6 °F8.6 °F68 %30.19 in30.0 miWSW (250°)17.3 mphPartly Cloudy
10:00 AM19.4 °F8.6 °F63 %30.23 in30.0 miWest (270°)19.6 mphPartly Cloudy
11:00 AM20.0 °F8.0 °F46 %30.28 inWSW (250°)17.3 mph
11:00 AM21.2 °F8.6 °F58 %30.28 in30.0 miWest (260°)19.6 mph26.5 mphPartly Cloudy
12:00 PM21.2 °F8.6 °F58 %30.31 in30.0 miWest (270°)18.4 mph31.1 mphPartly Cloudy
1:00 PM23.0 °F6.8 °F50 %30.35 in30.0 miWest (270°)23.0 mph28.8 mphScattered Clouds
2:00 PM23.0 °F10.0 °F44 %30.38 inWest (270°)18.4 mph
2:00 PM23.0 °F8.6 °F54 %30.38 in30.0 miWest (270°)19.6 mph27.6 mphScattered Clouds
3:00 PM24.8 °F8.6 °F50 %30.41 in30.0 miWest (280°)17.3 mph23.0 mphScattered Clouds
4:00 PM24.8 °F8.6 °F50 %30.43 in30.0 miWest (270°)15.0 mph23.0 mphScattered Clouds
5:00 PM26.6 °F10.4 °F51 %30.46 in30.0 miWest (260°)13.8 mphScattered Clouds
6:00 PM28.4 °F10.4 °F47 %30.47 in30.0 miWest (260°)11.5 mphPartly Cloudy
7:00 PM26.6 °F10.4 °F51 %30.51 in30.0 miWest (260°)8.1 mphPartly Cloudy
8:00 PM24.0 °F13.0 °F52 %30.53 inSW (230°)2.3 mph
8:00 PM24.8 °F8.6 °F50 %30.53 in30.0 miSW (230°)4.6 mphPartly Cloudy
9:00 PM24.8 °F10.4 °F54 %30.57 in15.0 miWest (260°)3.5 mphClear
10:00 PM21.2 °F12.2 °F68 %30.59 in15.0 miWest (260°)3.5 mphClear
11:00 PM18.0 °F15.0 °F84 %30.60 inCalm
11:00 PM21.2 °F12.2 °F68 %30.60 in15.0 miENE (70°)2.3 mphClear
Hourly data recorded from CYQB, located miles away from Quebec City, Quebec







STORIES FROM OUR PARTNERS